Year,Month,Day,Hour,Minute,Value (Times are PST for temperature in C)
2007,12,17,00,00,5.60
2007,12,17,00,01,5.60
2007,12,17,00,02,5.70
2007,12,17,00,03,5.70
2007,12,17,00,04,5.70
2007,12,17,00,05,5.70
2007,12,17,00,06,5.70
2007,12,17,00,07,5.70
2007,12,17,00,08,5.70
2007,12,17,00,09,5.70
2007,12,17,00,10,5.70
2007,12,17,00,11,5.70
2007,12,17,00,12,5.70
2007,12,17,00,13,5.70
2007,12,17,00,14,5.70
2007,12,17,00,15,5.70
2007,12,17,00,16,5.70
2007,12,17,00,17,5.80
2007,12,17,00,18,5.80
2007,12,17,00,19,5.80
2007,12,17,00,20,5.80
2007,12,17,00,21,5.80
2007,12,17,00,22,5.80
2007,12,17,00,23,5.80
2007,12,17,00,24,5.90
2007,12,17,00,25,5.90
2007,12,17,00,26,5.90
2007,12,17,00,27,5.90
2007,12,17,00,28,5.90
2007,12,17,00,29,5.90
2007,12,17,00,30,5.90
2007,12,17,00,31,5.90
2007,12,17,00,32,5.90
2007,12,17,00,33,5.90
2007,12,17,00,34,5.90
2007,12,17,00,35,5.90
2007,12,17,00,36,5.80
2007,12,17,00,37,5.80
2007,12,17,00,38,5.80
2007,12,17,00,39,5.80
2007,12,17,00,40,5.80
2007,12,17,00,41,5.90
2007,12,17,00,42,5.80
2007,12,17,00,43,5.80
2007,12,17,00,44,5.80
2007,12,17,00,45,5.80
2007,12,17,00,46,5.80
2007,12,17,00,47,5.80
2007,12,17,00,48,5.80
2007,12,17,00,49,5.80
2007,12,17,00,50,5.80
2007,12,17,00,51,5.80
2007,12,17,00,52,5.80
2007,12,17,00,53,5.90
2007,12,17,00,54,5.80
2007,12,17,00,55,5.80
2007,12,17,00,56,5.80
2007,12,17,00,57,5.80
2007,12,17,00,58,5.80
2007,12,17,00,59,5.80
2007,12,17,01,00,5.80
2007,12,17,01,01,5.80
2007,12,17,01,02,5.80
2007,12,17,01,03,5.80
2007,12,17,01,04,5.80
2007,12,17,01,05,5.80
2007,12,17,01,06,5.80
2007,12,17,01,07,5.80
2007,12,17,01,08,5.80
2007,12,17,01,09,5.80
2007,12,17,01,10,5.80
2007,12,17,01,11,5.70
2007,12,17,01,12,5.70
2007,12,17,01,13,5.70
2007,12,17,01,14,5.70
2007,12,17,01,15,5.70
2007,12,17,01,16,5.70
2007,12,17,01,17,5.60
2007,12,17,01,18,5.60
2007,12,17,01,19,5.60
2007,12,17,01,20,5.60
2007,12,17,01,21,5.50
2007,12,17,01,22,5.50
2007,12,17,01,23,5.50
2007,12,17,01,24,5.40
2007,12,17,01,25,5.40
2007,12,17,01,26,5.40
2007,12,17,01,27,5.40
2007,12,17,01,28,5.30
2007,12,17,01,29,5.30
2007,12,17,01,30,5.30
2007,12,17,01,31,5.30
2007,12,17,01,32,5.20
2007,12,17,01,33,5.20
2007,12,17,01,34,5.20
2007,12,17,01,35,5.20
2007,12,17,01,36,5.10
2007,12,17,01,37,5.10
2007,12,17,01,38,5.10
2007,12,17,01,39,5.10
2007,12,17,01,40,5.10
2007,12,17,01,41,5.00
2007,12,17,01,42,5.00
2007,12,17,01,43,5.00
2007,12,17,01,44,5.00
2007,12,17,01,45,5.00
2007,12,17,01,46,4.90
2007,12,17,01,47,4.90
2007,12,17,01,48,5.00
2007,12,17,01,49,5.00
2007,12,17,01,50,5.10
2007,12,17,01,51,5.10
2007,12,17,01,52,5.10
2007,12,17,01,53,5.10
2007,12,17,01,54,5.20
2007,12,17,01,55,5.20
2007,12,17,01,56,5.20
2007,12,17,01,57,5.20
2007,12,17,01,58,5.20
2007,12,17,01,59,5.30
2007,12,17,02,00,5.30
2007,12,17,02,01,5.30
2007,12,17,02,02,5.30
2007,12,17,02,03,5.30
2007,12,17,02,04,5.30
2007,12,17,02,05,5.30
2007,12,17,02,06,5.30
2007,12,17,02,07,5.30
2007,12,17,02,08,5.20
2007,12,17,02,09,5.20
2007,12,17,02,10,5.20
2007,12,17,02,11,5.20
2007,12,17,02,12,5.20
2007,12,17,02,13,5.20
2007,12,17,02,14,5.20
2007,12,17,02,15,5.20
2007,12,17,02,16,5.10
2007,12,17,02,17,5.10
2007,12,17,02,18,5.10
2007,12,17,02,19,5.10
2007,12,17,02,20,5.10
2007,12,17,02,21,5.10
2007,12,17,02,22,5.10
2007,12,17,02,23,5.10
2007,12,17,02,24,5.10
2007,12,17,02,25,5.10
2007,12,17,02,26,5.10
2007,12,17,02,27,5.00
2007,12,17,02,28,5.00
2007,12,17,02,29,5.00
2007,12,17,02,30,5.00
2007,12,17,02,31,5.00
2007,12,17,02,32,5.00
2007,12,17,02,33,5.00
2007,12,17,02,34,5.10
2007,12,17,02,35,5.10
2007,12,17,02,36,5.10
2007,12,17,02,37,5.10
2007,12,17,02,38,5.10
2007,12,17,02,39,5.10
2007,12,17,02,40,5.10
2007,12,17,02,41,5.00
2007,12,17,02,42,5.00
2007,12,17,02,43,5.00
2007,12,17,02,44,4.90
2007,12,17,02,45,4.90
2007,12,17,02,46,4.90
2007,12,17,02,47,4.90
2007,12,17,02,48,4.90
2007,12,17,02,49,4.90
2007,12,17,02,50,4.90
2007,12,17,02,51,4.90
2007,12,17,02,52,4.90
2007,12,17,02,53,5.00
2007,12,17,02,54,5.00
2007,12,17,02,55,5.00
2007,12,17,02,56,5.00
2007,12,17,02,57,5.00
2007,12,17,02,58,5.00
2007,12,17,02,59,5.00
2007,12,17,03,00,5.00
2007,12,17,03,01,5.10
2007,12,17,03,02,5.10
2007,12,17,03,03,5.10
2007,12,17,03,04,5.10
2007,12,17,03,05,5.10
2007,12,17,03,06,5.10
2007,12,17,03,07,5.10
2007,12,17,03,08,5.10
2007,12,17,03,09,5.10
2007,12,17,03,10,5.10
2007,12,17,03,11,5.10
2007,12,17,03,12,5.10
2007,12,17,03,13,5.10
2007,12,17,03,14,5.00
2007,12,17,03,15,5.00
2007,12,17,03,16,5.00
2007,12,17,03,17,5.00
2007,12,17,03,18,4.90
2007,12,17,03,19,4.90
2007,12,17,03,20,4.90
2007,12,17,03,21,4.90
2007,12,17,03,22,4.80
2007,12,17,03,23,4.80
2007,12,17,03,24,4.80
2007,12,17,03,25,4.70
2007,12,17,03,26,4.70
2007,12,17,03,27,4.70
2007,12,17,03,28,4.60
2007,12,17,03,29,4.60
2007,12,17,03,30,4.60
2007,12,17,03,31,4.50
2007,12,17,03,32,4.50
2007,12,17,03,33,4.50
2007,12,17,03,34,4.50
2007,12,17,03,35,4.50
2007,12,17,03,36,4.60
2007,12,17,03,37,4.50
2007,12,17,03,38,4.60
2007,12,17,03,39,4.60
2007,12,17,03,40,4.60
2007,12,17,03,41,4.60
2007,12,17,03,42,4.70
2007,12,17,03,43,4.70
2007,12,17,03,44,4.70
2007,12,17,03,45,4.70
2007,12,17,03,46,4.70
2007,12,17,03,47,4.70
2007,12,17,03,48,4.70
2007,12,17,03,49,4.70
2007,12,17,03,50,4.80
2007,12,17,03,51,4.80
2007,12,17,03,52,4.80
2007,12,17,03,53,4.70
2007,12,17,03,54,4.70
2007,12,17,03,55,4.70
2007,12,17,03,56,4.70
2007,12,17,03,57,4.60
2007,12,17,03,58,4.60
2007,12,17,03,59,4.60
2007,12,17,04,00,4.50
2007,12,17,04,01,4.50
2007,12,17,04,02,4.50
2007,12,17,04,03,4.40
2007,12,17,04,04,4.40
2007,12,17,04,05,4.40
2007,12,17,04,06,4.40
2007,12,17,04,07,4.40
2007,12,17,04,08,4.30
2007,12,17,04,09,4.30
2007,12,17,04,10,4.30
2007,12,17,04,11,4.30
2007,12,17,04,12,4.30
2007,12,17,04,13,4.30
2007,12,17,04,14,4.20
2007,12,17,04,15,4.20
2007,12,17,04,16,4.20
2007,12,17,04,17,4.20
2007,12,17,04,18,4.20
2007,12,17,04,19,4.20
2007,12,17,04,20,4.20
2007,12,17,04,21,4.20
2007,12,17,04,22,4.20
2007,12,17,04,23,4.20
2007,12,17,04,24,4.20
2007,12,17,04,25,4.20
2007,12,17,04,26,4.20
2007,12,17,04,27,4.20
2007,12,17,04,28,4.20
2007,12,17,04,29,4.20
2007,12,17,04,30,4.20
2007,12,17,04,31,4.20
2007,12,17,04,32,4.20
2007,12,17,04,33,4.20
2007,12,17,04,34,4.20
2007,12,17,04,35,4.10
2007,12,17,04,36,4.10
2007,12,17,04,37,4.10
2007,12,17,04,38,4.10
2007,12,17,04,39,4.10
2007,12,17,04,40,4.10
2007,12,17,04,41,4.20
2007,12,17,04,42,4.20
2007,12,17,04,43,4.20
2007,12,17,04,44,4.30
2007,12,17,04,45,4.30
2007,12,17,04,46,4.30
2007,12,17,04,47,4.30
2007,12,17,04,48,4.30
2007,12,17,04,49,4.30
2007,12,17,04,50,4.40
2007,12,17,04,51,4.40
2007,12,17,04,52,4.40
2007,12,17,04,53,4.50
2007,12,17,04,54,4.50
2007,12,17,04,55,4.40
2007,12,17,04,56,4.40
2007,12,17,04,57,4.50
2007,12,17,04,58,4.50
2007,12,17,04,59,4.50
2007,12,17,05,00,4.50
2007,12,17,05,01,4.50
2007,12,17,05,02,4.50
2007,12,17,05,03,4.40
2007,12,17,05,04,4.40
2007,12,17,05,05,4.40
2007,12,17,05,06,4.40
2007,12,17,05,07,4.30
2007,12,17,05,08,4.30
2007,12,17,05,09,4.30
2007,12,17,05,10,4.30
2007,12,17,05,11,4.30
2007,12,17,05,12,4.30
2007,12,17,05,13,4.30
2007,12,17,05,14,4.30
2007,12,17,05,15,4.30
2007,12,17,05,16,4.30
2007,12,17,05,17,4.30
2007,12,17,05,18,4.30
2007,12,17,05,19,4.20
2007,12,17,05,20,4.20
2007,12,17,05,21,4.20
2007,12,17,05,22,4.20
2007,12,17,05,23,4.20
2007,12,17,05,24,4.10
2007,12,17,05,25,4.10
2007,12,17,05,26,4.10
2007,12,17,05,27,4.10
2007,12,17,05,28,4.10
2007,12,17,05,29,4.10
2007,12,17,05,30,4.00
2007,12,17,05,31,4.00
2007,12,17,05,32,4.00
2007,12,17,05,33,4.00
2007,12,17,05,34,4.00
2007,12,17,05,35,4.00
2007,12,17,05,36,4.00
2007,12,17,05,37,4.00
2007,12,17,05,38,4.00
2007,12,17,05,39,4.00
2007,12,17,05,40,4.00
2007,12,17,05,41,3.90
2007,12,17,05,42,3.90
2007,12,17,05,43,3.90
2007,12,17,05,44,3.90
2007,12,17,05,45,3.90
2007,12,17,05,46,4.00
2007,12,17,05,47,4.00
2007,12,17,05,48,4.00
2007,12,17,05,49,4.00
2007,12,17,05,50,4.00
2007,12,17,05,51,4.00
2007,12,17,05,52,3.90
2007,12,17,05,53,3.90
2007,12,17,05,54,3.90
2007,12,17,05,55,3.90
2007,12,17,05,56,3.90
2007,12,17,05,57,3.90
2007,12,17,05,58,3.90
2007,12,17,05,59,3.90
2007,12,17,06,00,3.90
2007,12,17,06,01,3.90
2007,12,17,06,02,3.90
2007,12,17,06,03,3.90
2007,12,17,06,04,3.80
2007,12,17,06,05,3.80
2007,12,17,06,06,3.80
2007,12,17,06,07,3.80
2007,12,17,06,08,3.80
2007,12,17,06,09,3.80
2007,12,17,06,10,3.80
2007,12,17,06,11,3.80
2007,12,17,06,12,3.80
2007,12,17,06,13,3.80
2007,12,17,06,14,3.80
2007,12,17,06,15,3.80
2007,12,17,06,16,3.80
2007,12,17,06,17,3.80
2007,12,17,06,18,3.90
2007,12,17,06,19,3.90
2007,12,17,06,20,3.90
2007,12,17,06,21,3.90
2007,12,17,06,22,4.00
2007,12,17,06,23,4.00
2007,12,17,06,24,4.10
2007,12,17,06,25,4.10
2007,12,17,06,26,4.20
2007,12,17,06,27,4.20
2007,12,17,06,28,4.20
2007,12,17,06,29,4.20
2007,12,17,06,30,4.30
2007,12,17,06,31,4.30
2007,12,17,06,32,4.30
2007,12,17,06,33,4.30
2007,12,17,06,34,4.30
2007,12,17,06,35,4.30
2007,12,17,06,36,4.30
2007,12,17,06,37,4.30
2007,12,17,06,38,4.30
2007,12,17,06,39,4.30
2007,12,17,06,40,4.30
2007,12,17,06,41,4.40
2007,12,17,06,42,4.40
2007,12,17,06,43,4.40
2007,12,17,06,44,4.40
2007,12,17,06,45,4.40
2007,12,17,06,46,4.40
2007,12,17,06,47,4.40
2007,12,17,06,48,4.40
2007,12,17,06,49,4.40
2007,12,17,06,50,4.40
2007,12,17,06,51,4.40
2007,12,17,06,52,4.40
2007,12,17,06,53,4.40
2007,12,17,06,54,4.40
2007,12,17,06,55,4.40
2007,12,17,06,56,4.40
2007,12,17,06,57,4.40
2007,12,17,06,58,4.40
2007,12,17,06,59,4.40
2007,12,17,07,00,4.30
2007,12,17,07,01,4.30
2007,12,17,07,02,4.30
2007,12,17,07,03,4.30
2007,12,17,07,04,4.30
2007,12,17,07,05,4.20
2007,12,17,07,06,4.20
2007,12,17,07,07,4.20
2007,12,17,07,08,4.20
2007,12,17,07,09,4.20
2007,12,17,07,10,4.20
2007,12,17,07,11,4.20
2007,12,17,07,12,4.10
2007,12,17,07,13,4.10
2007,12,17,07,14,4.10
2007,12,17,07,15,4.00
2007,12,17,07,16,4.00
2007,12,17,07,17,3.90
2007,12,17,07,18,3.90
2007,12,17,07,19,3.80
2007,12,17,07,20,3.80
2007,12,17,07,21,3.80
2007,12,17,07,22,3.80
2007,12,17,07,23,3.70
2007,12,17,07,24,3.70
2007,12,17,07,25,3.70
2007,12,17,07,26,3.70
2007,12,17,07,27,3.70
2007,12,17,07,28,3.70
2007,12,17,07,29,3.70
2007,12,17,07,30,3.70
2007,12,17,07,31,3.70
2007,12,17,07,32,3.70
2007,12,17,07,33,3.70
2007,12,17,07,34,3.70
2007,12,17,07,35,3.70
2007,12,17,07,36,3.70
2007,12,17,07,37,3.70
2007,12,17,07,38,3.80
2007,12,17,07,39,3.90
2007,12,17,07,40,4.00
2007,12,17,07,41,4.00
2007,12,17,07,42,4.10
2007,12,17,07,43,4.20
2007,12,17,07,44,4.30
2007,12,17,07,45,4.30
2007,12,17,07,46,4.30
2007,12,17,07,47,4.30
2007,12,17,07,48,4.30
2007,12,17,07,49,4.30
2007,12,17,07,50,4.30
2007,12,17,07,51,4.30
2007,12,17,07,52,4.20
2007,12,17,07,53,4.20
2007,12,17,07,54,4.20
2007,12,17,07,55,4.30
2007,12,17,07,56,4.20
2007,12,17,07,57,4.20
2007,12,17,07,58,4.20
2007,12,17,07,59,4.20
2007,12,17,08,00,4.20
2007,12,17,08,01,4.20
2007,12,17,08,02,4.20
2007,12,17,08,03,4.20
2007,12,17,08,04,4.20
2007,12,17,08,05,4.20
2007,12,17,08,06,4.20
2007,12,17,08,07,4.20
2007,12,17,08,08,4.30
2007,12,17,08,09,4.30
2007,12,17,08,10,4.30
2007,12,17,08,11,4.30
2007,12,17,08,12,4.40
2007,12,17,08,13,4.40
2007,12,17,08,14,4.40
2007,12,17,08,15,4.40
2007,12,17,08,16,4.30
2007,12,17,08,17,4.30
2007,12,17,08,18,4.30
2007,12,17,08,19,4.40
2007,12,17,08,20,4.40
2007,12,17,08,21,4.40
2007,12,17,08,22,4.40
2007,12,17,08,23,4.30
2007,12,17,08,24,4.30
2007,12,17,08,25,4.30
2007,12,17,08,26,4.30
2007,12,17,08,27,4.20
2007,12,17,08,28,4.20
2007,12,17,08,29,4.20
2007,12,17,08,30,4.20
2007,12,17,08,31,4.20
2007,12,17,08,32,4.20
2007,12,17,08,33,4.20
2007,12,17,08,34,4.20
2007,12,17,08,35,4.20
2007,12,17,08,36,4.20
2007,12,17,08,37,4.20
2007,12,17,08,38,4.20
2007,12,17,08,39,4.30
2007,12,17,08,40,4.20
2007,12,17,08,41,4.20
2007,12,17,08,42,4.20
2007,12,17,08,43,4.20
2007,12,17,08,44,4.10
2007,12,17,08,45,4.10
2007,12,17,08,46,4.10
2007,12,17,08,47,4.10
2007,12,17,08,48,4.00
2007,12,17,08,49,4.00
2007,12,17,08,50,4.00
2007,12,17,08,51,4.00
2007,12,17,08,52,4.00
2007,12,17,08,53,4.00
2007,12,17,08,54,4.10
2007,12,17,08,55,4.10
2007,12,17,08,56,4.10
2007,12,17,08,57,4.20
2007,12,17,08,58,4.20
2007,12,17,08,59,4.30
2007,12,17,09,00,4.30
